Погода в Лаукуве

Погода в Лаукуве : погода сейчас, прогноз погоды и архив. Всё, что Вы хотите узнать о погоде в Лаукуве!

Поиск расширенной информации на нашем сайте:

Другие новости

Новости СМИ2

Главная страница сайта

Новости сайта

03.07.2017

Напоминаем, что на нашем специализированном сайте Метеоцентр.Азия вы можете получить высокодетализированные автоматические прогнозы погоды по пунктам России, СНГ и мира в авиационном формате (включающие направление и скорость ветра, видимость, явления погоды, количество и форму облачности, нижнюю и верхнюю границу облачности).

Рекомендуем: монтаж система вентиляции торгового центра

Погода в Лаукуве - сегодня

Время (UTC), дата Ветер
(°,м/с) 
Видим.   Явления Облачность Т
(°С)
Тd
(°С)
f(%) Тe
(°С)
Pmin
(гПа)
dP
(гПа)
Po
(мм)
O2
(г/м3)
Тmin Tmax R s Состояние
почвы
12 13.07.18 тихо () -3{04}  20000 м  {ливн. осадки, дождь}  10/6 500 м кучево-дожд., средняя 
[Cb cap|Ac As]
+19.7 +16.2 80 +31  1010.7  -0.6  744  276      0.0     
15 13.07.18 020 (С) 2-3{05}  20000 м    ?/? 1000 
[Cb cap|Ac As]
+19.6 +16.6 83 +33  1010.4  -0.3  743  275           
18 13.07.18 360 (С) 2-3{05}  20000 м    8/3 1000 м кучево-дожд., средняя, верхняя 
[Cb calv|Ac lent|Ci sp]
+18.7 +16.2 85 +31  1010.5  743  276    +20.6  0.0     
21 13.07.18 360 (С) 2-3{03}  20000 м    10/5 180 м кучево-дожд., средняя 
[Cb cap|Ac As]
+17.6 +16.6 94 +30  1010.9  0.3  744  277           
00 14.07.18 330 (СЗ) 2-3{07}  15000 м  слаб. дождь  10/5 1050 м кучево-дожд., средняя 
[Cb cap|Ac As]
+16.2 +15.3 94 +26  1010.6  -0.4  743  279         
03 14.07.18 360 (С) 1-2{04}  10 км  {дождь}  10/10 120 м 
[St]
+16.1 +15.8 98 +27  1010.3  -0.3  743  279           
06 14.07.18 020 (С) 3-4{06}  20000 м  {дождь}  8/3 1000 м средняя, верхняя 
[Cu hum|Ac trans|Ci sp]
+18.6 +16.9 90 +32  1010.5  0.4  743  276  +16.1      влажная 
09 14.07.18 350 (С) 3-5{06}  20000 м  в посл. час дождь  10/0 средняя 
[Ac As]
+19.6 +16.9 84 +32  1010.8  0.4  744  275           
12 14.07.18 010 (С) 4-8{08}  19000 м  гроза без осадков{ливн. осадки}  8/6 1000 м кучево-дожд., средняя, верхняя 
[Cb cap|Ac trans|Ci sp]
+23.1 +16.8 68 +35  1010.2  -0.4  743  272      0.0     
15 14.07.18 340 (С) 3-4{10}  20000 м  гроза без осадков{ливн. осадки}  10/8 1000 м кучево-дожд., средняя 
[Cb cap|Ac As]
+19.8 +15.6 77 +31  1010.7  0.3  743  275           
18 14.07.18 330 (СЗ) 2-3{08}  20000 м  {гроза, ливн. осадки}  8/3 1000 м кучево-дожд., средняя, верхняя 
[Cb calv|Ac trans|Ci sp]
+18.5 +17 91 +32  1010.8  0.8  743  276    +23.3     
21 14.07.18 300 (СЗ) 1-3{04}  20000 м    8/0 средняя, верхняя 
[Ac lent|Ci sp]
+17.2 +16 93 +30  1011.4  0.5  744  278           
00 15.07.18 330 (СЗ) 3-5{05}  19000 м    6/0 средняя, верхняя 
[Ac lent|Ci sp]
+16.2 +15.3 94 +26  1011.2  -0.3  744  280           
03 15.07.18 360 (С) 3-4{05}  20000 м    5/0 средняя, верхняя 
[Ac lent|Ci sp]
+16.3 +14.8 91 +26  1011.1  -0.1  744  279           
06 15.07.18 340 (С) 3-4{04}  18000 м    6/0 средняя, верхняя 
[Ac trans|Ci sp]
+19.6 +17.1 85 +33  1011.4  0.5  744  275  +15.5        влажная 
09 15.07.18 020 (С) 4-7{07}  20000 м    6/3 1000 м верхняя 
[Cu med, cong|Ci sp]
+24.5 +16.7 62 +37  1011.5  0.5  744  271           
12 15.07.18 330 (СЗ) 3-4{09}  18000 м  гроза без осадков{ливн. осадки}  8/6 1000 м кучево-дожд., верхняя 
[Cb calv|Ci sp]
+23.8 +17.2 67 +37  1010.8  -0.7  744  272      0.4     
15 15.07.18 040 (СВ) 5-8{09}  20000 м  {гроза, ливн. осадки}  8/4 1000 м верхняя 
[Cu med, cong|Ci sp]
+26.6 +13.8 45 +34  1010.4  -0.3  744  270           
18 15.07.18 030 (СВ) 3-4{08}  20000 м  {гроза, ливн. осадки}  8/3 1000 м верхняя 
[Cu med, cong|Cs]
+25.4 +15.1 53 +35  1011.2  0.7  744  270    +26.8  0.4     
21 15.07.18 040 (СВ) 2-3{06}  20000 м  {ливн. осадки}  8/4 1000 м верхняя 
[Sc|Ci sp]
+21.5 +16.2 72 +33  1011.8  0.3  744  274           
00 16.07.18 020 (С) 3-6{06}  20000 м  {ливн. осадки}  5/0 верхняя 
[Ci sp]
+19.6 +14.7 73 +28  1011.9  744  277      0.0     
03 16.07.18 050 (СВ) 3-4{07}  20000 м    8/0 средняя 
[Ac lent]
+18.2 +15.5 84 +29  1012.2  0.2  745  277           
06 16.07.18 050 (СВ) 3-5{05}  20000 м    10/0 средняя 
[Ac As]
+19.5 +16.7 84 +32  1012.1  0.1  745  276  +17.9        сухая 
09 16.07.18 040 (СВ) 5-7{09}  20000 м    9/1 1000 м средняя, верхняя 
[Cu hum|Ac trans|Cs]
+23.8 +18.1 70 +39  1011.5  -0.4  744  271           
12 16.07.18 050 (СВ) 6-10{10}  20000 м    8/4 1000 м верхняя 
[Cu hum|Cs]
+25.8 +16.6 57 +38  1010.5  -0.8  744  270           
Время (UTC), дата Ветер
(°,м/с) 
Видим.   Явления Облачность Т
(°С)
Тd
(°С)
f(%) Тe
(°С)
Pmin
(гПа)
dP
(гПа)
Po
(мм)
O2
(г/м3)
Тmin Tmax R s Состояние
почвы

Для получения пояснительной информации подведите курсор к названию столбца.

ПОГОДА в Лаукуве - архив

Всё, что Вы хотите узнать о погоде в Лаукуве - удобно и подробно!

Выберите нужную дату (начиная с 1 января 2015* года) и нажмите кнопку "Найти".
Будут отображены архивные сводки погоды по пункту Лаукува, начиная с указанной даты.


Отображать данные в формате CSV (для использования в таблицах Excel)


Внимание! Наш архив погоды предназначен исключительно для личного некоммерческого использования в познавательных целях. Если Вам необходимы официальные справки о состоянии погоды (для производственных, юридических, коммерческих и т.п. целей), обращайтесь в органы Росгидромета.

*Примечание: данная дата относится к архиву по метеостанциям СССР (Россия, СНГ, Балтия).
Архив по метеостанциям Зарубежной Европы и Азии (кроме Китая) хранится 10 дней, по другим регионам земного шара (Китай, Африка, Америка, Австралия, Океания) - 1 день.

Лаукува - район местоположения метеостанции


Название, широта, долгота, высота метеостанции:
Лаукува 55.6°ш. 22.2°д. 166 м над ур. моря [Литва]

Дополнительная информация

В oтличие oт бoльшинства пoгoдных сайтoв мы публикуем пoдрoбную метеoинфoрмацию в детальнoм прoфессиoнальнoм фoрмате.

Характеристики температуры и влажнoсти вoздуха измеряются на высoте 2 м в тени вдали oт зданий и деревьев.
Скoрoсть ветра измеряется на высoте 10 м (на урoвне рoста челoвека скoрoсть ветра ниже в 1.5-2 раза). Если метеoстанция нахoдится в гoрoде или в лесу, тo скoрoсть ветра занижена на 2-4 м/с пo сравнению с oткрытым местoм. Скoрoсть ветра над акватoриями крупных рек и oзёр, а также на вершинах хoлмoв на 2-5 м/с выше, чем в oбычных услoвиях.
Атмoсфернoе давление в разных тoчках местнoсти мoжет значительнo oтличаться oт давления на метеoстанции, в зависимoсти oт услoвий рельефа (при пoдъёме на 10 м давление пoнижается примернo на 1 мм рт.ст.).